Location: Pf�ffikon
(47.2015°N, 8.7809°E)
Time: 06:39:06
(UTC+00:00)

Cosmos 1610 Rocket - Pass Details

Date: 07 June 2020
Orbit: 954 x 1001 km, 82.9° (Epoch: 04 July)

Event Time Altitude Azimuth Distance (km) Brightness Sun altitude
Exits shadow 01:24:10 19° 185° (S) 2,128 5.7 -14.9°
Maximum altitude 01:28:49 87° 96° (E) 970 4.5 -14.6°
Drops below altitude 10° 01:35:03 10° 9° (N) 2,722 8.0 -14.0°
Sets 01:37:35 0° 10° (N) 3,680 8.9 -13.8°
